Location: ???? ????
(41.4149°N, 22.8816°E)
Time: 14:59:18
(UTC+00:00)

Cosmos 1814 Rocket - Pass Details

Date: 14 July 2020
Orbit: 745 x 786 km, 74.1° (Epoch: 04 August)

Event Time Altitude Azimuth Distance (km) Brightness Sun altitude
Rises 02:14:49 0° 341° (NNW) 3,197 7.5 -8.9°
Reaches altitude 10° 02:17:11 10° 342° (NNW) 2,270 6.7 -8.6°
Maximum altitude 02:22:20 83° 71° (ENE) 760 4.1 -7.8°
Drops below altitude 10° 02:27:28 10° 159° (SSE) 2,269 6.3 -7.1°
Sets 02:29:50 0° 160° (SSE) 3,195 7.0 -6.7°
